Reno, NV

3:30 AM PDT on August 26, 2016 (GMT -0700)
Reno - Stead

Weather History for KRTS - September, 2014

Change the Weather History Date:

Tuesday, September 2, 2014

  Actual Average (KRNO) Record (KRNO)
Temperature  
Mean Temperature 68 °F 69 °F  
Max Temperature 89 °F 87 °F 101 °F (1950)
Min Temperature 48 °F 52 °F 29 °F (1964)
Degree Days  
Heating Degree Days 0 1  
Month to date heating degree days 2  
Since 1 July heating degree days 12  
Cooling Degree Days 4 5  
Month to date cooling degree days 10  
Year to date cooling degree days 756  
Growing Degree Days 18 (Base 50)    
Moisture  
Dew Point 29 °F    
Average Humidity 25    
Maximum Humidity 40    
Minimum Humidity 11    
Precipitation  
Precipitation 0.00 in 0.00 in 0.12 in (1921)
Month to date precipitation 0.01  
Year to date precipitation 4.70  
Snow  
Snow 0.00 in 0.00 in 0.00 in ()
Month to date snowfall 0.0  
Since 1 July snowfall 0.0  
Since 1 September snowfall 0.0  
Snow Depth -    
Sea Level Pressure  
Sea Level Pressure 30.00 in    
Wind  
Wind Speed 6 mph (NW)    
Max Wind Speed 21 mph    
Max Gust Speed 28 mph    
Visibility 10 miles    
Events      
T = Trace of Precipitation, MM = Missing Value Source: NWS Daily Summary

Daily Weather History Graph

Daily Weather History Graph

Search for Another Location

Airport or City:

Trip Planner

Search our weather history database for the weather conditions in past years. The results will help you decide how hot, cold, wet, or windy it might be!

Date:

Astronomy

Sep. 02, 2014 Rise Set
Actual Time 6:28 AM PDT 7:28 PM PDT
Civil Twilight 6:01 AM PDT 7:56 PM PDT
Nautical Twilight 5:28 AM PDT 8:29 PM PDT
Astronomical Twilight 4:54 AM PDT 9:03 PM PDT
Moon 2:16 PM PDT (9/2) No Moon Set
Length of Visible Light 13h 55m
Length of Day
13h 00m
First Quarter, 54% of the Moon is Illuminated
Sep 2
First Quarter
Sep 8
Full
Sep 15
Last Quarter
Sep 23
New
Oct 1
First Quarter

Hourly Weather History & Observations

Time (PDT) Temp. Dew Point Humidity Pressure Visibility Wind Dir Wind Speed Gust Speed Precip Events Conditions
12:15 AM 55.4 °F 24.8 °F 31% 30.05 in 10.0 mi NNW 8.1 mph - N/A   Clear
12:35 AM 55.4 °F 24.8 °F 31% 30.05 in 10.0 mi Calm Calm - N/A   Clear
12:55 AM 55.4 °F 24.8 °F 31% 30.05 in 10.0 mi North 3.5 mph - N/A   Clear
1:15 AM 55.4 °F 24.8 °F 31% 30.05 in 10.0 mi North 3.5 mph - N/A   Clear
1:35 AM 55.4 °F 24.8 °F 31% 30.04 in 10.0 mi NNW 5.8 mph - N/A   Clear
1:55 AM 55.4 °F 24.8 °F 31% 30.04 in 10.0 mi NNW 3.5 mph - N/A   Clear
2:15 AM 55.4 °F 24.8 °F 31% 30.04 in 10.0 mi Calm Calm - N/A   Clear
2:35 AM 53.6 °F 24.8 °F 33% 30.04 in 10.0 mi Calm Calm - N/A   Clear
2:55 AM 55.4 °F 26.6 °F 33% 30.04 in 10.0 mi North 4.6 mph - N/A   Clear
3:15 AM 53.6 °F 26.6 °F 35% 30.04 in 10.0 mi Calm Calm - N/A   Clear
3:35 AM 55.4 °F 26.6 °F 33% 30.04 in 10.0 mi Calm Calm - N/A   Clear
3:55 AM 50.0 °F 24.8 °F 37% 30.04 in 10.0 mi NW 3.5 mph - N/A   Clear
4:15 AM 50.0 °F 24.8 °F 37% 30.03 in 10.0 mi NW 5.8 mph - N/A   Clear
4:35 AM 51.8 °F 24.8 °F 35% 30.03 in 10.0 mi North 4.6 mph - N/A   Clear
4:55 AM 50.0 °F 26.6 °F 40% 30.03 in 10.0 mi SE 3.5 mph - N/A   Clear
5:15 AM 50.0 °F 24.8 °F 37% 30.03 in 10.0 mi Calm Calm - N/A   Clear
5:35 AM 50.0 °F 26.6 °F 40% 30.04 in 10.0 mi Calm Calm - N/A   Clear
5:55 AM 48.2 °F 24.8 °F 40% 30.04 in 10.0 mi NW 3.5 mph - N/A   Clear
6:15 AM 50.0 °F 26.6 °F 40% 30.04 in 10.0 mi Calm Calm - N/A   Clear
6:35 AM 48.2 °F 24.8 °F 40% 30.04 in 10.0 mi Calm Calm - N/A   Clear
6:55 AM 50.0 °F 26.6 °F 40% 30.05 in 10.0 mi Calm Calm - N/A   Clear
7:15 AM 50.0 °F 26.6 °F 40% 30.05 in 10.0 mi NNW 3.5 mph - N/A   Clear
7:35 AM 53.6 °F 28.4 °F 38% 30.05 in 10.0 mi Calm Calm - N/A   Clear
7:55 AM 57.2 °F 28.4 °F 33% 30.05 in 10.0 mi Calm Calm - N/A   Clear
8:15 AM 59.0 °F 28.4 °F 31% 30.05 in 10.0 mi Calm Calm - N/A   Clear
8:35 AM 62.6 °F 28.4 °F 27% 30.05 in 10.0 mi Calm Calm - N/A   Clear
8:55 AM 64.4 °F 30.2 °F 28% 30.05 in 10.0 mi Calm Calm - N/A   Clear
9:15 AM 68.0 °F 32.0 °F 26% 30.05 in 10.0 mi Calm Calm - N/A   Clear
9:35 AM 71.6 °F 32.0 °F 23% 30.05 in 10.0 mi SSE 3.5 mph - N/A   Clear
9:55 AM 73.4 °F 32.0 °F 22% 30.04 in 10.0 mi Calm Calm - N/A   Clear
10:15 AM 75.2 °F 33.8 °F 22% 30.04 in 10.0 mi Calm Calm - N/A   Clear
10:35 AM 77.0 °F 32.0 °F 19% 30.03 in 10.0 mi Calm Calm - N/A   Clear
10:55 AM 78.8 °F 33.8 °F 20% 30.03 in 10.0 mi SSE 3.5 mph - N/A   Clear
11:15 AM 78.8 °F 33.8 °F 20% 30.02 in 10.0 mi Calm Calm - N/A   Clear
11:35 AM 80.6 °F 33.8 °F 18% 30.01 in 10.0 mi WSW 3.5 mph - N/A   Clear
11:55 AM 82.4 °F 32.0 °F 16% 30.01 in 10.0 mi North 4.6 mph - N/A   Clear
12:15 PM 82.4 °F 32.0 °F 16% 30.00 in 10.0 mi Calm Calm - N/A   Clear
12:35 PM 84.2 °F 33.8 °F 16% 30.00 in 10.0 mi NE 4.6 mph - N/A   Clear
12:55 PM 84.2 °F 33.8 °F 16% 29.99 in 10.0 mi NE 5.8 mph - N/A   Clear
1:15 PM 86.0 °F 35.6 °F 17% 29.98 in 10.0 mi WNW 9.2 mph 21.9 mph N/A   Clear
1:35 PM 84.2 °F 35.6 °F 18% 29.97 in 10.0 mi ESE 4.6 mph 19.6 mph N/A   Clear
1:55 PM 87.8 °F 32.0 °F 14% 29.97 in 10.0 mi SW 5.8 mph - N/A   Clear
2:15 PM 86.0 °F 32.0 °F 14% 29.96 in 10.0 mi NW 6.9 mph - N/A   Clear
2:35 PM 89.6 °F 28.4 °F 11% 29.95 in 10.0 mi WNW 16.1 mph 21.9 mph N/A   Clear
2:55 PM 89.6 °F 28.4 °F 11% 29.94 in 10.0 mi NW 17.3 mph 25.3 mph N/A   Clear
3:15 PM 87.8 °F 28.4 °F 12% 29.94 in 10.0 mi WNW 17.3 mph 25.3 mph N/A   Clear
3:55 PM 87.8 °F 28.4 °F 12% 29.93 in 10.0 mi WNW 20.7 mph 26.5 mph N/A   Clear
4:15 PM 87.8 °F 28.4 °F 12% 29.93 in 10.0 mi West 20.7 mph 26.5 mph N/A   Clear
4:35 PM 86.0 °F 26.6 °F 12% 29.93 in 10.0 mi West 19.6 mph 25.3 mph N/A   Clear
4:55 PM 86.0 °F 28.4 °F 12% 29.93 in 10.0 mi West 20.7 mph 26.5 mph N/A   Clear
5:15 PM 86.0 °F 30.2 °F 13% 29.93 in 10.0 mi WNW 15.0 mph 25.3 mph N/A   Clear
5:35 PM 84.2 °F 28.4 °F 13% 29.93 in 10.0 mi WNW 17.3 mph 26.5 mph N/A   Clear
5:55 PM 84.2 °F 28.4 °F 13% 29.92 in 10.0 mi WNW 20.7 mph 27.6 mph N/A   Clear
6:15 PM 82.4 °F 30.2 °F 15% 29.93 in 10.0 mi West 16.1 mph - N/A   Clear
6:35 PM 82.4 °F 30.2 °F 15% 29.93 in 10.0 mi West 18.4 mph - N/A   Clear
6:55 PM 80.6 °F 30.2 °F 16% 29.93 in 10.0 mi WNW 12.7 mph 20.7 mph N/A   Clear
7:15 PM 78.8 °F 28.4 °F 16% 29.93 in 10.0 mi WNW 18.4 mph 21.9 mph N/A   Clear
7:35 PM 77.0 °F 30.2 °F 18% 29.94 in 10.0 mi West 12.7 mph - N/A   Clear
7:55 PM 73.4 °F 30.2 °F 20% 29.95 in 10.0 mi NW 11.5 mph - N/A   Clear
8:15 PM 73.4 °F 30.2 °F 20% 29.95 in 10.0 mi WNW 15.0 mph - N/A   Clear
8:35 PM 73.4 °F 32.0 °F 22% 29.95 in 10.0 mi NW 15.0 mph - N/A   Clear
8:55 PM 71.6 °F 32.0 °F 23% 29.96 in 10.0 mi WNW 16.1 mph - N/A   Clear
9:15 PM 71.6 °F 32.0 °F 23% 29.96 in 10.0 mi West 16.1 mph - N/A   Clear
9:35 PM 71.6 °F 32.0 °F 23% 29.96 in 10.0 mi West 15.0 mph 19.6 mph N/A   Clear
9:55 PM 69.8 °F 32.0 °F 25% 29.96 in 10.0 mi West 13.8 mph - N/A   Clear
10:15 PM 68.0 °F 32.0 °F 26% 29.97 in 10.0 mi NNW 3.5 mph - N/A   Clear
10:35 PM 68.0 °F 32.0 °F 26% 29.97 in 10.0 mi NE 6.9 mph - N/A   Clear
10:55 PM 68.0 °F 32.0 °F 26% 29.98 in 10.0 mi NW 8.1 mph - N/A   Clear
11:15 PM 71.6 °F 32.0 °F 23% 29.99 in 10.0 mi WNW 9.2 mph - N/A   Clear
11:35 PM 71.6 °F 30.2 °F 22% 29.98 in 10.0 mi NNW 8.1 mph - N/A   Clear
11:55 PM 64.4 °F 32.0 °F 30% 29.98 in 10.0 mi West 9.2 mph - N/A   Clear